Flag for Netherlands Weather past 2 weeks in Oss, Netherlands

Now
57 °F

Partly sunny.


Feels Like: 55 °F
Forecast: 51 / 65 °F
Wind: 8 mph from West

Location: Volkel

Current Time: Jul 29, 2015 at 10:16:08 PM

Latest Report: Jul 29, 2015 at 9:25 PM


Visibility: N/A

Pressure: 29.86 "Hg

Humidity: 77%

Dew point: 50 °F

Location of OssLocation

Historic Weather in Oss — Graph

°F

Oss temperature yesterday

Maximum temperature yesterday: 68 °F (at 1:55 PM)
Minimum temperature yesterday: 55 °F (at 4:55 AM)
Average temperature yesterday: 61 °F

Past Weeks' High & Low Weather Summary

 TemperatureHumidityPressure
High84 °F (Jul 17, 1:55 PM)100% (Jul 15, 12:01 AM)30.12 "Hg (Jul 15, 12:01 AM)
Low46 °F (Jul 26, 2:55 AM)38% (Jul 23, 4:25 PM)29.45 "Hg (Jul 25, 6:55 AM)
Average65 °F75%29.87 "Hg
* Reported Jul 14 8:02 PM — Jul 29 8:55 PM, Oss, Weather by CustomWeather, © 2015

Note: Actual official high and low records may vary slightly from our data, if they occured in-between our weather recording intervals... More about our weather records

Advertising

Oss weather history for previous 24 hours

 ConditionsComfort  
Time TempWeatherWind HumidityBarometerVisibility
8:55 PM
Wed, Jul 29
59 °FMostly cloudy.9 mph72%29.86 "HgN/A
8:25 PM59 °FMostly cloudy.10 mph72%29.86 "HgN/A
7:55 PM59 °FBroken clouds.9 mph77%29.86 "HgN/A
7:25 PM57 °FRain showers. Mostly cloudy.13 mph77%29.83 "HgN/A
6:55 PM61 °FMostly cloudy.14 mph68%29.83 "HgN/A
6:25 PM61 °FBroken clouds.13 mph63%29.83 "HgN/A
5:55 PM63 °FPassing clouds.17 mph64%29.80 "HgN/A
5:25 PM63 °FMostly cloudy.16 mph56%29.80 "HgN/A
4:55 PM61 °FBroken clouds.17 mph59%29.80 "HgN/A
4:25 PM64 °FMild.20 mph56%29.77 "HgN/A
3:55 PM63 °FPassing clouds.17 mph59%29.77 "HgN/A
3:25 PM63 °FPassing clouds.18 mph59%29.77 "HgN/A
2:55 PM61 °FScattered clouds.13 mph72%29.77 "HgN/A
2:25 PM57 °FThunderstorms. Partly sunny.16 mph77%29.74 "HgN/A
1:59 PM59 °FThunderstorms. Broken clouds.10 mph77%29.74 "HgN/A
1:55 PM57 °FStrong thunderstorms. Broken clouds.12 mph77%29.74 "HgN/A
1:25 PM59 °FBroken clouds.14 mph77%29.74 "HgN/A
12:55 PM59 °FPassing clouds.14 mph82%29.74 "HgN/A
12:25 PM54 °FThunderstorms. Passing clouds.10 mph88%29.74 "HgN/A
11:55 AM54 °FLots of rain. Broken clouds.12 mph88%29.77 "HgN/A
11:25 AM54 °FThunderstorms. Broken clouds.12 mph82%29.74 "HgN/A
10:59 AM57 °FBroken clouds.12 mph72%29.74 "HgN/A
10:25 AM57 °FScattered clouds.10 mph88%29.74 "HgN/A
9:55 AM55 °FPartly sunny.10 mph88%29.74 "HgN/A
9:25 AM55 °FBroken clouds.16 mph82%29.74 "HgN/A
8:55 AM55 °FPartly sunny.10 mph94%29.74 "HgN/A
8:25 AM54 °FBroken clouds.10 mph94%29.74 "HgN/A
7:55 AM54 °FBroken clouds.14 mph88%29.74 "HgN/A
7:25 AM55 °FMostly cloudy.10 mph82%29.74 "HgN/A
7:00 AM54 °FBroken clouds.13 mph88%29.74 "HgN/A
6:25 AM54 °FOvercast.8 mph88%29.74 "HgN/A
5:55 AM54 °FMostly cloudy.8 mph88%29.74 "HgN/A
4:55 AM54 °FMostly cloudy.9 mph88%29.74 "HgN/A
4:25 AM54 °FOvercast.8 mph88%29.74 "HgN/A
3:55 AM54 °FLight rain. Mostly cloudy.12 mph82%29.74 "HgN/A
3:25 AM55 °FOvercast.14 mph77%29.74 "HgN/A
2:55 AM55 °FMostly cloudy.14 mph77%29.74 "HgN/A
2:25 AM55 °FPartly cloudy.13 mph77%29.74 "HgN/A
1:55 AM55 °FPassing clouds.10 mph72%29.74 "HgN/A
1:25 AM55 °FPassing clouds.10 mph72%29.74 "HgN/A
12:55 AM57 °FMostly cloudy.13 mph67%29.74 "HgN/A
11:55 PM
Tue, Jul 28
59 °FOvercast.16 mph63%29.74 "HgN/A
10:55 PM59 °FOvercast.14 mph63%29.74 "HgN/A
10:25 PM61 °FOvercast.14 mph59%29.74 "HgN/A
Weather by CustomWeather, © 2015

See weather overviewHow to use our weather pages